Location: Bezawada
(16.5136°N, 80.6297°E)
Time: 18:13:35
(UTC+00:00)

Meteor 1-11 Rocket - Pass Details

Date: 27 February 2020
Orbit: 831 x 916 km, 81.2° (Epoch: 28 March)

Event Time Altitude Azimuth Distance (km) Brightness Sun altitude
Rises 13:50:59 0° 168° (SSE) 3,452 6.8 -16.8°
Reaches altitude 10° 13:53:35 10° 161° (SSE) 2,502 6.0 -17.5°
Maximum altitude 13:58:50 40° 93° (E) 1,244 4.1 -18.7°
Enters shadow 14:02:32 18° 33° (NNE) 1,970 5.3 -19.6°
